Location: Hadstock
(52.0667°N, 0.2667°E)
Time: 00:44:32
(UTC+00:00)

Daily predictions for brighter satellites

Satellite Brightness Start Highest point End
(mag) Time Altitude Azimuth Time Altitude Azimuth Time Altitude Azimuth
Cosmos 2263 Rocket 4.5 03:01:26 19° E 03:01:26 19° E 03:04:24 10° NE
ATLAS 3B R/B 3.4 03:30:34 48° NE 03:30:34 48° NE 03:36:44 10° ESE
ALOS 4.1 03:49:00 10° NE 03:53:03 28° E 03:53:16 28° E
Cosmos 2227 Rocket 4.1 03:57:13 20° NNE 03:57:13 20° NNE 03:59:06 10° NNE
Cosmos 2344 4.3 03:53:00 47° NNW 03:56:02 68° NE 04:07:58 10° ESE
NOSS 3-2 (C) 4.5 04:00:07 49° S 04:00:07 49° S 04:06:19 10° SSE
CENTAUR R/B 3.4 04:01:35 54° S 04:01:35 54° S 04:08:38 10° SSE
NOSS 3-4 (A) 4.4 04:00:49 36° SSE 04:02:03 40° ESE 04:07:53 10° NE
NOSS 3-4 (C) 4.4 04:00:54 35° SSE 04:02:11 40° ESE 04:08:01 10° NE
SL-4 R/B 4.3 04:15:02 22° E 04:15:02 22° E 04:16:27 10° E
Cosmos 1680 Rocket 4.0 04:20:02 59° NE 04:20:08 59° ENE 04:25:23 10° SE
ATLAS 2AS CENTAUR R/B 3.7 04:15:31 16° S 04:21:41 50° ESE 04:29:10 10° NE
Cosmos 2297 Rocket 4.0 04:30:31 20° N 04:30:31 20° N 04:32:50 10° NNE
ATLAS 5 CENTAUR R/B 3.6 04:31:18 27° NE 04:31:18 27° NE 04:32:28 10° NE
ATLAS CENTAUR R/B 2.9 04:32:06 31° E 04:32:06 31° E 04:34:21 10° ESE
ADEOS 4.2 04:27:55 10° NNE 04:33:05 55° E 04:38:12 10° S
Lacrosse 5 3.1 04:32:03 33° SSE 04:33:13 37° SE 04:37:51 10° ENE
Cosmos 2112 Rocket 4.2 04:38:53 56° N 04:39:57 71° ENE 04:45:17 10° SSE
Gbstr 26 Del rocket 4.4 04:43:33 27° SE 04:43:33 27° SE 04:45:31 10° SE
Cosmos 1745 Rocket 4.3 04:44:18 50° NW 04:44:18 50° NW 04:49:25 10° N
Cosmos 2263 Rocket 2.0 04:43:11 76° WSW 04:43:36 83° WNW 04:49:21 10° NNE
SJ 16-02 1.7 04:45:52 62° SE 04:46:10 64° ESE 04:50:35 10° NNE
Meteor 1-26 Rocket 4.1 04:48:58 35° NNW 04:51:33 82° W 04:57:11 10° S
Cosmos 1766 Rocket 3.6 04:58:04 67° N 04:58:04 67° N 05:01:59 10° N
FENGYUN 3A 3.5 04:52:34 10° NNE 04:58:02 86° WNW 05:03:26 10° SSW
Cosmos 2082 Rocket 4.2 04:57:54 12° N 05:01:34 21° NNE 05:05:46 10° E
Cosmos 2181 Rocket 3.8 04:56:29 10° NNW 05:02:41 72° W 05:08:47 10° S
Cosmos 1408 Rocket 3.9 04:59:05 10° S 05:03:29 65° E 05:07:55 10° NNE
USA 307 3.0 05:05:08 67° N 05:05:09 67° N 05:09:28 10° E
Okean 3 Rocket 4.2 05:07:16 41° N 05:07:16 41° N 05:10:15 10° N
COSMO-SKYMED 1 2.4 05:02:51 10° SSE 05:07:13 85° W 05:07:59 60° NNW
Cosmos 1709 Rocket 4.0 05:02:00 10° SSW 05:08:19 64° WNW 05:14:41 10° N
USA 308 2.9 05:11:14 65° NNW 05:11:30 67° N 05:15:49 10° E
Lacrosse 4 Rocket 3.4 05:14:32 17° SSW 05:14:32 17° SSW 05:15:51 10° S
Cosmos 1833 Rocket 4.2 05:08:14 14° NNW 05:12:21 30° NE 05:17:18 10° ESE
Meteor 2-3 Rocket 3.6 05:09:48 10° SSW 05:15:32 76° WNW 05:21:22 10° N
CZ-4C R/B 2.8 05:11:12 10° SSW 05:16:07 55° SE 05:22:03 10° NE
CZ-4B R/B 3.6 05:12:08 10° NNE 05:16:39 63° ESE 05:21:02 10° S
MOS 1 Rocket 4.0 05:12:54 10° SSE 05:17:41 58° ENE 05:22:47 10° N
FALCON 9 DEB 4.4 05:18:33 29° S 05:19:07 32° SSE 05:22:03 10° E
Cosmos 1689 Rocket 4.2 05:17:16 10° S 05:18:12 19° S 05:18:12 19° S
ATLAS 3B R/B 2.8 05:17:51 35° WNW 05:20:50 62° SW 05:27:52 10° SSE
COSMOS 2406 4.4 05:18:03 14° NNW 05:22:38 40° NE 05:28:01 10° ESE
Cosmos 1862 4.2 05:24:19 10° S 05:28:14 51° E 05:32:13 10° NNE
Genesis I 4.2 05:25:12 10° SSW 05:28:50 44° SE 05:32:32 10° NE
deb Chang Zheng 4 3.4 05:26:10 10° N 05:30:30 67° WNW 05:34:49 10° SSW
ALOS 2.5 05:26:11 10° N 05:30:38 44° WNW 05:31:45 37° WSW
Cosmos 990 Rocket 3.9 05:31:08 10° SSW 05:36:23 89° WNW 05:41:42 10° NNE
METEOR-M 4.2 05:32:52 10° N 05:38:04 53° WNW 05:43:15 10° SW
Cosmos 2074 Rocket 3.9 05:32:01 10° S 05:38:14 87° WNW 05:44:30 10° N
Cosmos 2227 Rocket 3.9 05:39:03 16° NNW 05:39:20 16° NNW 05:42:41 10° NNE
Meteor 1-31 Rocket 3.0 05:36:37 10° N 05:40:18 43° WNW 05:40:29 43° WNW
USA 305 2.9 05:38:55 40° WNW 05:40:22 72° N 05:44:41 10° E
Cosmos 405 Rocket 3.1 05:40:20 10° S 05:43:59 63° E 05:47:44 10° NNE
Cosmos 1812 2.5 05:42:51 18° NNW 05:45:41 76° W 05:49:31 10° S
Cosmos 2228 Rocket 2.9 05:43:44 10° NNW 05:48:11 76° W 05:52:34 10° S
EO 1 Delta rocket 3.7 05:43:33 10° S 05:48:28 71° W 05:53:05 10° NNW
Cosmos 1515 Rocket 4.0 05:46:48 27° NW 05:48:38 40° W 05:52:48 10° SSW
USA 306 2.9 05:47:01 34° WNW 05:48:48 74° N 05:53:07 10° E
CENTAUR R/B 4.3 05:48:50 19° W 05:49:36 19° WSW 05:55:16 10° SSW
Cosmos 1782 3.9 05:52:15 26° WSW 05:52:15 26° WSW 05:54:59 10° SSW
SL-4 R/B 1.7 05:50:37 34° W 05:52:12 85° S 05:55:53 10° E
NOSS 3-4 (A) 3.5 05:48:19 19° WSW 05:52:43 60° NW 05:59:13 10° NE
NOSS 3-4 (C) 3.5 05:48:24 18° WSW 05:52:50 61° NW 05:59:22 10° NE
PSLV R/B 4.4 05:50:06 10° SSW 05:53:59 38° W 05:55:47 25° NW
DMSP B5D1-3 4.4 05:50:05 10° S 05:55:14 75° WSW 06:00:26 10° NNW
SKYMED 2 4.3 05:51:39 10° SSW 05:55:29 30° W 05:56:36 27° WNW
Cosmos 2184 Rocket 4.0 05:49:29 10° SSW 05:55:47 71° WNW 06:02:12 10° N
SJ-12 4.2 05:53:40 10° N 05:57:31 42° WNW 06:01:21 10° SW
FALCON 9 DEB 3.4 05:56:59 22° SW 05:58:48 58° SSE 06:01:59 10° ENE
FALCON 9 DEB 3.1 05:59:52 32° WNW 06:01:21 86° N 06:04:50 10° E
Cosmos 1844 Rocket 2.7 05:56:17 10° SSW 06:01:58 88° WNW 06:07:42 10° NNE
Cosmos 1707 Rocket 3.9 06:00:51 10° N 06:05:12 67° ENE 06:09:31 10° SSE
EXPRESS MD2 4.3 06:03:37 22° W 06:05:56 54° SSW 06:12:53 10° ESE
Meteor PRIRODA 4.0 06:05:23 10° N 06:08:56 41° WNW 06:12:28 10° SW
ATLAS CENTAUR R/B 2.4 06:08:18 21° W 06:09:16 24° WSW 06:12:26 10° S
COSMOS 2455 3.7 06:04:15 10° SSW 06:10:06 55° ESE 06:15:59 10° NE
RESURS DK-1 2.3 06:06:08 10° SW 06:10:16 61° NW 06:14:25 10° NNE
NOAA 6 4.3 06:05:29 10° NNE 06:10:38 74° ESE 06:15:45 10° S
ADEOS 4.4 06:07:54 10° N 06:12:21 29° WNW 06:16:46 10° WSW
ERBS 3.1 06:11:05 24° NW 06:12:25 34° N 06:15:31 10° ENE
OPS 8737 4.5 06:10:36 21° NW 06:12:30 70° NE 06:16:17 10° SE
ATLAS 2AS CENTAUR R/B 3.1 06:04:46 10° WSW 06:12:42 63° NW 06:20:24 10° NE
EP 3 3.6 06:11:51 22° SW 06:12:55 71° SE 06:14:49 10° NE
H-2A R/B 2.8 06:09:27 10° N 06:13:19 59° WNW 06:17:08 10° SSW
Cosmos 2297 Rocket 4.2 06:12:19 10° NNW 06:14:18 12° NNW 06:16:31 10° N
Cosmos 1500 Rocket 3.7 06:11:10 10° SSW 06:15:21 49° WNW 06:19:35 10° N
CZ-4B DEB 4.3 06:10:18 10° NNE 06:15:48 83° ESE 06:21:17 10° SSW
Cosmos 1437 Rocket 2.7 06:12:06 10° NNW 06:15:49 55° W 06:19:30 10° S
Cosmos 1844 3.6 06:10:18 10° SSW 06:15:52 86° WNW 06:21:31 10° NNE
Lacrosse 5 1.8 06:11:18 12° WSW 06:15:57 75° NNW 06:21:03 10° ENE
Okean O Rocket 2.6 06:15:00 10° NNE 06:19:21 52° E 06:23:42 10° S
Cosmos 372 Rocket 4.2 06:14:25 10° SSW 06:19:28 74° ESE 06:24:35 10° NNE
Uosat 12 SS-18 rocket 4.4 06:16:46 15° NW 06:20:44 82° SW 06:26:25 10° SE
Cosmos 1242 Rocket 3.9 06:17:18 10° N 06:20:47 41° ENE 06:24:16 10° SE
PAYLOAD B 4.4 06:16:41 10° NNE 06:22:14 78° ESE 06:27:45 10° SSW
SMAP 3.5 06:18:25 10° NNE 06:23:05 65° ESE 06:27:42 10° S
Geosat 4.1 06:18:29 10° SE 06:23:30 81° ENE 06:28:34 10° NNW
SJ 16-02 2.6 06:22:57 15° W 06:25:11 21° NW 06:28:38 10° N
USA 81 4.3 06:20:37 10° S 06:25:51 74° E 06:31:08 10° N
Cosmos 2263 Rocket 3.3 06:24:56 14° W 06:28:24 24° NW 06:32:59 10° NNE
FALCON 9 DEB 3.0 06:28:58 10° WSW 06:32:08 80° SSE 06:35:21 10° ENE
FALCON 9 DEB 3.0 06:29:05 11° WSW 06:32:11 82° SSE 06:35:25 10° ENE
ATLAS 5 CENTAUR R/B 3.6 06:28:45 10° S 06:32:22 31° ESE 06:36:24 10° ENE
Nadezhda 3 Rocket 4.3 06:27:19 10° NNW 06:33:16 45° W 06:39:08 10° SSW
Cosmos 1898 Rocket 4.0 06:30:57 10° SW 06:35:57 40° NW 06:41:00 10° NNE
Sich 1 3.0 06:31:34 10° SSW 06:36:01 74° WNW 06:40:28 10° N
AQUARIUS 4.4 06:32:19 10° NNE 06:36:51 78° ESE 06:41:20 10° S
CZ-2C R/B 2.7 06:31:51 10° S 06:37:19 75° WSW 06:42:43 10° NNW
H-2A R/B 2.2 06:33:31 10° N 06:37:22 63° WNW 06:41:09 10° SSW
Envisat 3.0 06:32:24 10° N 06:37:26 64° WNW 06:42:28 10° SSW
Cosmos 1743 Rocket 4.3 06:35:33 10° SW 06:39:31 31° WNW 06:43:31 10° N
CORIOLIS 4.5 06:36:45 10° NNE 06:42:14 75° ESE 06:47:41 10° S
COSMO-SKYMED 1 4.4 06:42:32 10° WSW 06:44:04 12° W 06:45:12 11° WNW
USA 307 3.0 06:41:18 12° WNW 06:45:21 78° SSW 06:49:39 10° ESE
Cosmos 2082 Rocket 2.6 06:41:02 10° NNW 06:46:45 67° NE 06:52:26 10° SE
CZ-4B R/B 3.2 06:41:45 10° NNE 06:47:08 88° ESE 06:52:34 10° SSW
CZ-4 R/B 3.9 06:46:02 10° NE 06:49:37 27° E 06:53:13 10° SSE
CZ-4B R/B 4.3 06:47:55 10° N 06:51:18 21° WNW 06:54:38 10° WSW
Cosmos 1862 Rocket 3.6 06:46:50 10° NNW 06:51:20 83° W 06:55:45 10° S
USA 308 3.0 06:47:25 10° WNW 06:51:40 74° SSW 06:55:58 10° ESE
Cosmos 1939 Rocket 3.8 06:48:38 10° NNE 06:52:38 55° E 06:56:41 10° S
Cosmos 1937 Rocket 4.0 06:48:05 10° WSW 06:52:54 38° NW 06:57:48 10° NNE
FALCON 9 DEB 2.9 06:51:46 10° WSW 06:55:00 86° N 06:58:15 10° ENE
NOSS 7 (E) 4.3 06:52:15 10° WSW 06:55:37 58° NW 06:58:39 10° NE
Cosmos 1833 Rocket 2.8 06:51:10 10° NW 06:56:47 69° WSW 07:02:20 10° SSE
Cosmos 1269 Rocket 4.4 06:51:51 10° NNW 06:57:10 67° ENE 07:02:25 10° SE
Aureole 2 Rocket 2.8 06:55:40 10° WSW 06:57:48 23° WNW 06:59:59 10° N
Cosmos 1805 Rocket 4.1 06:54:28 10° SW 06:58:35 36° WNW 07:02:46 10° N
Meteor 1-27 Rocket 4.4 06:54:57 10° NNW 07:00:10 37° W 07:05:28 10° SSW
YAOGAN 6 3.4 06:57:41 10° N 07:00:43 27° WNW 07:03:43 10° SW
Cosmos 494 Rocket 4.1 06:57:29 10° NNW 07:02:37 64° WSW 07:07:41 10° S
Cosmos 2154 Rocket 4.5 06:57:30 10° SW 07:03:14 37° WNW 07:09:04 10° N
CZ-4C R/B 2.7 06:59:37 10° WSW 07:04:49 46° NNW 07:11:08 10° NE
Cosmos 1666 Rocket 3.6 07:01:19 10° SSW 07:05:34 58° WNW 07:09:53 10° N
COSMOS 2406 3.6 07:01:34 10° NW 07:07:06 49° WSW 07:12:37 10° S
